Delta Virtual Airport Information Service

Washington Dulles International Airport

ICAO: KIAD Country: United States
Latitude: 38.9474 Longitude: -77.4599
Latest Arrival : AAL1414 (2A) (KCLT-KIAD) Latest Departure : UAL1237 (1) (KIAD-KATL)


WX CaptureLIVE
Data provided by noaa.gov | Fetched at 00:13:06

METAR : KIAD 120452Z 35014G20KT 10SM SCT095 BKN150 13/M03 A3022 RMK AO2 SLP234 T01281028 402060067

TAF : KIAD 120230Z 1203/1306 32006KT P6SM SCT060 BKN080 FM120600 34005KT P6SM FEW150 SCT250 FM121000 30005KT P6SM FEW150 SCT250 FM121100 31005KT P6SM SCT150 BKN250 FM121300 33009KT P6SM FEW150 SCT250 FM130000 VRB03KT P6SM FEW250


Runway Data for KIAD
Data provided by openaviationdata.com

Runway ID Mag Var Hdg Length Elevation Surface ILS Freq ILS Id ILS Slope
01L -10 10° 11512 ft 312 ft Concrete 111.3 IOSZ 3
01R -10 10° 11511 ft 312 ft Concrete 110.1 IIAD 3
12 -10 120° 10490 ft 312 ft Concrete 109.3 IAJU 3
19L -10 190° 11511 ft 312 ft Concrete 110.1 ISGC 3
19R -10 190° 11512 ft 312 ft Concrete 111.3 IDLX 3
30 -10 300° 10490 ft 312 ft Concrete -- -- --

Washington Dulles International Airport, United States
Use only for reference purposes



Not for navigational purposes.